Powrót do katalogu

STARLINK-2134

AktywnyŁącznośćVLEO
NORAD 47407·PAYLOAD·🇺🇸 United States

Wystrzelony Jan 20, 2021 z Cape Canaveral Space Force Station

Loading…

Następne Przeloty (najbliższe 24 godziny)

TLE

ŚwieżeSource: CelesTrak SupGP

Epoka: Sep 15, 2026, 00:04 UTC

1 47407C 21005BL  26258.00326389  .00004819  00000+0  14246-3 0  2583
2 47407  53.1583 237.4112 0003816  58.4385 358.5315 15.34360803    14

Śledź STARLINK-2134 w czasie rzeczywistym z AllMySat

Download on the App Store